| time (UTC) | temp C | wind direction | speed KPH | gust KPH | rain 1hr cm | rain 24hr cm | rain mn cm | humidity % | barometer mb |
| 20260507015047 | 23 | 162 | 4.8 | 17.7 | 0.00 | 0.00 | 0.00 | 86 | 1014.4 |
| 20260507014557 | 23 | 167 | 6.4 | 16.1 | 0.00 | 0.00 | 0.00 | 86 | 1014.2 |
| 20260507014048 | 23 | 144 | 4.8 | 16.1 | 0.00 | 0.00 | 0.00 | 86 | 1014.2 |
| 20260507013546 | 23 | 134 | 4.8 | 16.1 | 0.00 | 0.00 | 0.00 | 85 | 1014.3 |
| 20260507013053 | 23 | 153 | 4.8 | 16.1 | 0.00 | 0.00 | 0.00 | 85 | 1014.3 |
| 20260507012550 | 23 | 157 | 6.4 | 16.1 | 0.00 | 0.00 | 0.00 | 85 | 1014.5 |
| 20260507012049 | 23 | 167 | 4.8 | 14.5 | 0.00 | 0.00 | 0.00 | 85 | 1014.7 |
| 20260507011550 | 23 | 159 | 3.2 | 14.5 | 0.00 | 0.00 | 0.00 | 85 | 1015.0 |
| 20260507011049 | 23 | 167 | 3.2 | 14.5 | 0.00 | 0.00 | 0.00 | 84 | 1014.9 |
| 20260507010547 | 23 | 159 | 6.4 | 14.5 | 0.00 | 0.00 | 0.00 | 84 | 1014.6 |
| 20260507010047 | 23 | 188 | 1.6 | 16.1 | 0.00 | 0.00 | 0.00 | 84 | 1014.5 |
| 20260507005547 | 23 | 0 | 6.4 | 16.1 | 0.00 | 0.00 | 0.00 | 84 | 1014.6 |
| 20260507005048 | 23 | 171 | 3.2 | 14.5 | 0.00 | 0.00 | 0.00 | 84 | 1014.4 |
| 20260507004550 | 23 | 163 | 4.8 | 14.5 | 0.00 | 0.00 | 0.00 | 84 | 1014.6 |
| 20260507004048 | 23 | 146 | 4.8 | 14.5 | 0.00 | 0.00 | 0.00 | 84 | 1014.6 |
| 20260507003547 | 23 | 173 | 4.8 | 20.9 | 0.00 | 0.00 | 0.00 | 83 | 1014.5 |
| 20260507003051 | 23 | 179 | 9.7 | 20.9 | 0.00 | 0.00 | 0.00 | 83 | 1014.4 |
| 20260507002542 | 23 | 153 | 9.7 | 16.1 | 0.00 | 0.00 | 0.00 | 83 | 1014.3 |
| 20260507002045 | 23 | 181 | 6.4 | 14.5 | 0.00 | 0.00 | 0.00 | 83 | 1014.2 |
| 20260507001553 | 23 | 178 | 8.0 | 17.7 | 0.00 | 0.00 | 0.00 | 82 | 1014.1 |
| 20260507001042 | 24 | 158 | 6.4 | 17.7 | 0.00 | 0.00 | 0.00 | 82 | 1014.1 |
| 20260507000542 | 24 | 196 | 11.3 | 17.7 | 0.00 | 0.00 | 0.00 | 82 | 1014.0 |
| 20260507000054 | 24 | 157 | 8.0 | 17.7 | 0.00 | 0.00 | 0.00 | 81 | 1014.1 |
| 20260506235543 | 24 | 172 | 6.4 | 22.5 | 0.00 | 0.00 | 0.00 | 81 | 1014.1 |
| 20260506235041 | 24 | 185 | 11.3 | 24.1 | 0.00 | 0.00 | 0.00 | 80 | 1014.0 |
| 20260506234615 | 25 | 175 | 9.7 | 24.1 | 0.00 | 0.00 | 0.00 | 79 | 1013.9 |
| 20260506234042 | 25 | 170 | 8.0 | 19.3 | 0.00 | 0.00 | 0.00 | 78 | 1013.9 |
| 20260506233543 | 25 | 199 | 8.0 | 25.7 | 0.00 | 0.00 | 0.00 | 78 | 1014.1 |
| 20260506233052 | 25 | 182 | 12.9 | 25.7 | 0.00 | 0.00 | 0.00 | 77 | 1014.0 |
| 20260506232545 | 25 | 182 | 11.3 | 20.9 | 0.00 | 0.00 | 0.00 | 76 | 1013.9 |
| 20260506232045 | 25 | 196 | 9.7 | 25.7 | 0.00 | 0.00 | 0.00 | 76 | 1014.0 |
| 20260506231556 | 25 | 166 | 8.0 | 25.7 | 0.00 | 0.00 | 0.00 | 75 | 1014.0 |
| 20260506231045 | 26 | 173 | 11.3 | 25.7 | 0.00 | 0.00 | 0.00 | 74 | 1014.0 |
| 20260506230544 | 26 | 192 | 11.3 | 22.5 | 0.00 | 0.00 | 0.00 | 72 | 1014.0 |
| 20260506230051 | 26 | 154 | 9.7 | 20.9 | 0.00 | 0.00 | 0.00 | 72 | 1013.9 |
| 20260506225546 | 26 | 152 | 11.3 | 22.5 | 0.00 | 0.00 | 0.00 | 71 | 1014.1 |
| 20260506225042 | 26 | 192 | 9.7 | 22.5 | 0.00 | 0.00 | 0.00 | 70 | 1014.1 |
| 20260506224553 | 26 | 180 | 9.7 | 17.7 | 0.00 | 0.00 | 0.00 | 70 | 1014.2 |
| 20260506224042 | 26 | 188 | 9.7 | 19.3 | 0.00 | 0.00 | 0.00 | 69 | 1014.3 |
| 20260506223543 | 26 | 184 | 11.3 | 19.3 | 0.00 | 0.00 | 0.00 | 68 | 1014.3 |
| 20260506223056 | 27 | 196 | 9.7 | 19.3 | 0.00 | 0.00 | 0.00 | 67 | 1014.3 |
| 20260506222543 | 27 | 190 | 8.0 | 20.9 | 0.00 | 0.00 | 0.00 | 67 | 1014.6 |
| 20260506222045 | 27 | 186 | 9.7 | 22.5 | 0.00 | 0.00 | 0.00 | 67 | 1014.6 |
| 20260506221551 | 27 | 190 | 9.7 | 22.5 | 0.00 | 0.00 | 0.00 | 67 | 1014.7 |
| 20260506221044 | 27 | 195 | 9.7 | 22.5 | 0.00 | 0.00 | 0.00 | 70 | 1014.7 |
| 20260506220542 | 27 | 165 | 11.3 | 22.5 | 0.00 | 0.00 | 0.00 | 66 | 1014.5 |
| 20260506220052 | 27 | 175 | 9.7 | 19.3 | 0.00 | 0.00 | 0.00 | 67 | 1014.7 |
| 20260506215546 | 27 | 173 | 9.7 | 19.3 | 0.00 | 0.00 | 0.00 | 65 | 1014.9 |
| 20260506215044 | 27 | 189 | 11.3 | 19.3 | 0.00 | 0.00 | 0.00 | 67 | 1015.0 |
| 20260506214550 | 27 | 180 | 8.0 | 17.7 | 0.00 | 0.00 | 0.00 | 65 | 1015.1 |
| 20260506214044 | 27 | 202 | 8.0 | 19.3 | 0.00 | 0.00 | 0.00 | 69 | 1015.2 |
| 20260506213545 | 27 | 192 | 11.3 | 19.3 | 0.00 | 0.00 | 0.00 | 66 | 1015.2 |
| 20260506213054 | 27 | 191 | 12.9 | 19.3 | 0.00 | 0.00 | 0.00 | 66 | 1015.3 |
| 20260506212543 | 27 | 171 | 9.7 | 19.3 | 0.00 | 0.00 | 0.00 | 65 | 1015.1 |
| 20260506212048 | 27 | 143 | 9.7 | 19.3 | 0.00 | 0.00 | 0.00 | 66 | 1015.3 |
| 20260506211554 | 27 | 176 | 11.3 | 19.3 | 0.00 | 0.00 | 0.00 | 64 | 1015.1 |
| 20260506211047 | 28 | 188 | 8.0 | 17.7 | 0.00 | 0.00 | 0.00 | 63 | 1015.2 |
| 20260506210548 | 28 | 173 | 8.0 | 17.7 | 0.00 | 0.00 | 0.00 | 67 | 1015.3 |
| 20260506210057 | 27 | 164 | 9.7 | 17.7 | 0.00 | 0.00 | 0.00 | 65 | 1015.4 |
| 20260506205546 | 28 | 188 | 9.7 | 19.3 | 0.00 | 0.00 | 0.00 | 64 | 1015.4 |
| 20260506205047 | 28 | 186 | 8.0 | 20.9 | 0.00 | 0.00 | 0.00 | 63 | 1015.4 |
| 20260506204558 | 28 | 179 | 6.4 | 20.9 | 0.00 | 0.00 | 0.00 | 63 | 1015.4 |
| 20260506204047 | 28 | 230 | 8.0 | 20.9 | 0.00 | 0.00 | 0.00 | 61 | 1015.4 |
| 20260506203544 | 28 | 218 | 6.4 | 17.7 | 0.00 | 0.00 | 0.00 | 63 | 1015.5 |
| 20260506203058 | 28 | 185 | 8.0 | 17.7 | 0.00 | 0.00 | 0.00 | 64 | 1015.5 |
| 20260506202550 | 28 | 234 | 8.0 | 16.1 | 0.00 | 0.00 | 0.00 | 60 | 1015.5 |
| 20260506202044 | 28 | 236 | 8.0 | 19.3 | 0.00 | 0.00 | 0.00 | 62 | 1015.9 |
| 20260506201558 | 28 | 173 | 9.7 | 24.1 | 0.00 | 0.00 | 0.00 | 66 | 1015.7 |
| 20260506201050 | 28 | 160 | 8.0 | 24.1 | 0.00 | 0.00 | 0.00 | 65 | 1016.0 |
| 20260506200551 | 28 | 155 | 8.0 | 19.3 | 0.00 | 0.00 | 0.00 | 64 | 1016.1 |
| 20260506200109 | 28 | 180 | 8.0 | 19.3 | 0.00 | 0.00 | 0.00 | 65 | 1016.3 |
| 20260506195551 | 29 | 171 | 8.0 | 19.3 | 0.00 | 0.00 | 0.00 | 64 | 1016.5 |
| 20260506195051 | 28 | 166 | 8.0 | 17.7 | 0.00 | 0.00 | 0.00 | 63 | 1016.4 |
| 20260506194611 | 29 | 225 | 8.0 | 17.7 | 0.00 | 0.00 | 0.00 | 60 | 1016.5 |
| 20260506194047 | 28 | 197 | 9.7 | 16.1 | 0.00 | 0.00 | 0.00 | 62 | 1016.4 |
| 20260506193547 | 29 | 175 | 8.0 | 17.7 | 0.00 | 0.00 | 0.00 | 63 | 1016.6 |
| 20260506193052 | 28 | 198 | 9.7 | 17.7 | 0.00 | 0.00 | 0.00 | 65 | 1016.6 |
| 20260506192548 | 28 | 187 | 8.0 | 17.7 | 0.00 | 0.00 | 0.00 | 65 | 1016.7 |
| 20260506192051 | 28 | 232 | 8.0 | 17.7 | 0.00 | 0.00 | 0.00 | 69 | 1016.8 |
| 20260506191552 | 28 | 218 | 8.0 | 19.3 | 0.00 | 0.00 | 0.00 | 65 | 1016.9 |
| 20260506191051 | 29 | 191 | 8.0 | 19.3 | 0.00 | 0.00 | 0.00 | 67 | 1016.8 |
| 20260506190545 | 28 | 219 | 9.7 | 20.9 | 0.00 | 0.00 | 0.00 | 64 | 1016.9 |
| 20260506190049 | 28 | 188 | 8.0 | 20.9 | 0.00 | 0.00 | 0.00 | 62 | 1016.9 |
| 20260506185548 | 28 | 218 | 8.0 | 16.1 | 0.00 | 0.00 | 0.00 | 64 | 1016.9 |
| 20260506185052 | 28 | 178 | 6.4 | 16.1 | 0.00 | 0.00 | 0.00 | 62 | 1016.9 |
| 20260506184602 | 30 | 190 | 6.4 | 17.7 | 0.00 | 0.00 | 0.00 | 63 | 1016.9 |
| 20260506184048 | 29 | 161 | 9.7 | 17.7 | 0.00 | 0.00 | 0.00 | 65 | 1016.9 |
| 20260506183551 | 28 | 184 | 6.4 | 17.7 | 0.00 | 0.00 | 0.00 | 65 | 1016.9 |
| 20260506183102 | 28 | 179 | 6.4 | 19.3 | 0.00 | 0.00 | 0.00 | 67 | 1017.0 |
| 20260506182547 | 28 | 179 | 9.7 | 19.3 | 0.00 | 0.00 | 0.00 | 65 | 1016.8 |
| 20260506182047 | 29 | 198 | 6.4 | 19.3 | 0.00 | 0.00 | 0.00 | 63 | 1017.0 |
| 20260506181558 | 29 | 242 | 4.8 | 19.3 | 0.00 | 0.00 | 0.00 | 70 | 1017.2 |
| 20260506181048 | 28 | 170 | 6.4 | 19.3 | 0.00 | 0.00 | 0.00 | 64 | 1017.1 |
| 20260506180613 | 28 | 186 | 8.0 | 19.3 | 0.00 | 0.00 | 0.00 | 67 | 1017.2 |
| 20260506180057 | 28 | 238 | 6.4 | 19.3 | 0.00 | 0.00 | 0.00 | 64 | 1017.2 |
| 20260506175546 | 28 | 205 | 9.7 | 19.3 | 0.00 | 0.00 | 0.00 | 66 | 1017.2 |
| 20260506175043 | 28 | 187 | 9.7 | 19.3 | 0.00 | 0.00 | 0.00 | 67 | 1017.2 |
| 20260506174549 | 28 | 195 | 6.4 | 16.1 | 0.00 | 0.00 | 0.00 | 65 | 1017.2 |
| 20260506174044 | 28 | 185 | 6.4 | 16.1 | 0.00 | 0.00 | 0.00 | 69 | 1017.2 |
| 20260506173547 | 28 | 207 | 8.0 | 14.5 | 0.00 | 0.00 | 0.00 | 64 | 1017.2 |
| 20260506173054 | 28 | 202 | 6.4 | 14.5 | 0.00 | 0.00 | 0.00 | 68 | 1017.3 |
| 20260506172543 | 28 | 229 | 6.4 | 14.5 | 0.00 | 0.00 | 0.00 | 66 | 1017.4 |
| 20260506172043 | 28 | 183 | 8.0 | 14.5 | 0.00 | 0.00 | 0.00 | 66 | 1017.4 |
| 20260506171600 | 28 | 192 | 8.0 | 14.5 | 0.00 | 0.00 | 0.00 | 66 | 1017.6 |
| 20260506171048 | 28 | 223 | 3.2 | 14.5 | 0.00 | 0.00 | 0.00 | 68 | 1017.6 |
| 20260506170542 | 27 | 217 | 6.4 | 16.1 | 0.00 | 0.00 | 0.00 | 72 | 1017.6 |
| 20260506170054 | 28 | 184 | 8.0 | 16.1 | 0.00 | 0.00 | 0.00 | 66 | 1017.6 |
| 20260506165544 | 28 | 219 | 6.4 | 16.1 | 0.00 | 0.00 | 0.00 | 69 | 1017.6 |
| 20260506165042 | 27 | 183 | 8.0 | 14.5 | 0.00 | 0.00 | 0.00 | 70 | 1017.5 |
| 20260506164557 | 27 | 209 | 4.8 | 14.5 | 0.00 | 0.00 | 0.00 | 70 | 1017.3 |
| 20260506164043 | 27 | 186 | 8.0 | 16.1 | 0.00 | 0.00 | 0.00 | 71 | 1017.3 |
| 20260506163542 | 27 | 211 | 6.4 | 16.1 | 0.00 | 0.00 | 0.00 | 71 | 1017.3 |
| 20260506163055 | 27 | 200 | 6.4 | 20.9 | 0.00 | 0.00 | 0.00 | 74 | 1017.4 |
| 20260506162541 | 27 | 180 | 8.0 | 20.9 | 0.00 | 0.00 | 0.00 | 71 | 1017.3 |
| 20260506162041 | 27 | 193 | 4.8 | 16.1 | 0.00 | 0.00 | 0.00 | 71 | 1017.3 |
| 20260506161604 | 27 | 174 | 9.7 | 19.3 | 0.00 | 0.00 | 0.00 | 70 | 1017.3 |
| 20260506161045 | 26 | 185 | 9.7 | 19.3 | 0.00 | 0.00 | 0.00 | 72 | 1017.3 |
| 20260506160545 | 26 | 194 | 11.3 | 19.3 | 0.00 | 0.00 | 0.00 | 71 | 1017.1 |
| 20260506160049 | 27 | 198 | 8.0 | 19.3 | 0.00 | 0.00 | 0.00 | 71 | 1017.2 |
| 20260506155542 | 26 | 166 | 8.0 | 22.5 | 0.00 | 0.00 | 0.00 | 73 | 1017.1 |
| 20260506155046 | 26 | 165 | 9.7 | 27.4 | 0.00 | 0.00 | 0.00 | 72 | 1017.1 |
| 20260506154550 | 26 | 150 | 8.0 | 27.4 | 0.00 | 0.00 | 0.00 | 75 | 1017.1 |
| 20260506154048 | 26 | 195 | 11.3 | 27.4 | 0.00 | 0.00 | 0.00 | 73 | 1017.1 |
| 20260506153543 | 26 | 162 | 11.3 | 24.1 | 0.00 | 0.00 | 0.00 | 73 | 1017.0 |
| 20260506153054 | 26 | 205 | 9.7 | 22.5 | 0.00 | 0.00 | 0.00 | 76 | 1017.0 |
| 20260506152542 | 26 | 189 | 9.7 | 22.5 | 0.00 | 0.00 | 0.00 | 74 | 1017.0 |
| 20260506152047 | 26 | 161 | 9.7 | 20.9 | 0.00 | 0.00 | 0.00 | 78 | 1016.8 |
| 20260506151605 | 25 | 186 | 9.7 | 22.5 | 0.00 | 0.00 | 0.00 | 76 | 1016.8 |
| 20260506151041 | 25 | 140 | 9.7 | 22.5 | 0.00 | 0.00 | 0.00 | 75 | 1016.8 |
| 20260506150544 | 25 | 199 | 9.7 | 20.9 | 0.00 | 0.00 | 0.00 | 75 | 1016.8 |
| 20260506150055 | 25 | 155 | 9.7 | 22.5 | 0.00 | 0.00 | 0.00 | 75 | 1016.7 |
| 20260506145545 | 25 | 191 | 9.7 | 22.5 | 0.00 | 0.00 | 0.00 | 75 | 1016.6 |
| 20260506145045 | 25 | 185 | 11.3 | 20.9 | 0.00 | 0.00 | 0.00 | 74 | 1016.6 |
| 20260506144602 | 25 | 155 | 11.3 | 24.1 | 0.00 | 0.00 | 0.00 | 75 | 1016.5 |
| 20260506144048 | 26 | 180 | 12.9 | 24.1 | 0.00 | 0.00 | 0.00 | 74 | 1016.3 |
| 20260506143548 | 26 | 205 | 9.7 | 19.3 | 0.00 | 0.00 | 0.00 | 75 | 1016.4 |
| 20260506143057 | 25 | 163 | 6.4 | 22.5 | 0.00 | 0.00 | 0.00 | 77 | 1016.5 |
| 20260506142549 | 25 | 171 | 9.7 | 22.5 | 0.00 | 0.00 | 0.00 | 75 | 1016.5 |
| 20260506142049 | 25 | 181 | 8.0 | 22.5 | 0.00 | 0.00 | 0.00 | 77 | 1016.4 |
| 20260506141549 | 25 | 180 | 8.0 | 17.7 | 0.00 | 0.00 | 0.00 | 77 | 1016.4 |
| 20260506141048 | 25 | 175 | 8.0 | 25.7 | 0.00 | 0.00 | 0.00 | 78 | 1016.3 |
| 20260506140550 | 25 | 190 | 8.0 | 25.7 | 0.00 | 0.00 | 0.00 | 78 | 1016.2 |
| 20260506140103 | 25 | 162 | 9.7 | 19.3 | 0.00 | 0.00 | 0.00 | 81 | 1016.0 |
| 20260506135548 | 24 | 161 | 8.0 | 19.3 | 0.00 | 0.00 | 0.00 | 83 | 1016.1 |
| 20260506135049 | 23 | 185 | 9.7 | 20.9 | 0.00 | 0.00 | 0.00 | 84 | 1016.1 |
| 20260506134555 | 23 | 194 | 8.0 | 20.9 | 0.00 | 0.00 | 0.00 | 85 | 1016.1 |
| 20260506134047 | 23 | 182 | 8.0 | 16.1 | 0.00 | 0.00 | 0.00 | 87 | 1016.0 |
| 20260506133545 | 23 | 175 | 6.4 | 17.7 | 0.00 | 0.00 | 0.00 | 88 | 1015.9 |
| 20260506133052 | 23 | 190 | 8.0 | 17.7 | 0.00 | 0.00 | 0.00 | 89 | 1015.9 |
| 20260506132544 | 23 | 162 | 4.8 | 14.5 | 0.00 | 0.00 | 0.00 | 90 | 1015.7 |
| 20260506132048 | 22 | 180 | 8.0 | 14.5 | 0.00 | 0.00 | 0.00 | 91 | 1015.7 |
| 20260506131558 | 22 | 171 | 6.4 | 16.1 | 0.00 | 0.00 | 0.00 | 91 | 1015.8 |
| 20260506131048 | 22 | 159 | 8.0 | 17.7 | 0.00 | 0.00 | 0.00 | 91 | 1015.6 |
| 20260506130547 | 22 | 159 | 8.0 | 17.7 | 0.00 | 0.00 | 0.00 | 91 | 1015.6 |
| 20260506130110 | 22 | 177 | 6.4 | 17.7 | 0.00 | 0.00 | 0.00 | 91 | 1015.5 |
| 20260506125548 | 22 | 172 | 3.2 | 11.3 | 0.00 | 0.00 | 0.00 | 91 | 1015.5 |
| 20260506125048 | 22 | 0 | 0.0 | 0.0 | 0.00 | 0.00 | 0.00 | 91 | 1015.4 |
| 20260506124556 | 22 | 0 | 0.0 | 0.0 | 0.00 | 0.00 | 0.00 | 91 | 1015.4 |
| 20260506124051 | 21 | 0 | 0.0 | 0.0 | 0.00 | 0.00 | 0.00 | 91 | 1015.3 |
| 20260506123548 | 21 | 0 | 0.0 | 0.0 | 0.00 | 0.00 | 0.00 | 91 | 1015.3 |
| 20260506123048 | 21 | 0 | 0.0 | 0.0 | 0.00 | 0.00 | 0.00 | 91 | 1015.2 |
| 20260506122548 | 21 | 0 | 0.0 | 0.0 | 0.00 | 0.00 | 0.00 | 91 | 1015.1 |
| 20260506122044 | 21 | 0 | 0.0 | 0.0 | 0.00 | 0.00 | 0.00 | 91 | 1015.0 |
| 20260506121551 | 21 | 0 | 0.0 | 4.8 | 0.00 | 0.00 | 0.00 | 91 | 1015.1 |
| 20260506121048 | 21 | 0 | 0.0 | 4.8 | 0.00 | 0.00 | 0.00 | 91 | 1014.7 |
| 20260506120544 | 21 | 0 | 0.0 | 4.8 | 0.00 | 0.00 | 0.00 | 91 | 1014.7 |
| 20260506120053 | 21 | 0 | 0.0 | 0.0 | 0.00 | 0.00 | 0.00 | 91 | 1014.6 |
| 20260506115545 | 21 | 0 | 0.0 | 4.8 | 0.00 | 0.00 | 0.00 | 90 | 1014.5 |
| 20260506115047 | 21 | 0 | 0.0 | 8.0 | 0.00 | 0.00 | 0.00 | 91 | 1014.5 |
| 20260506114554 | 21 | 0 | 0.0 | 12.9 | 0.00 | 0.00 | 0.00 | 91 | 1014.4 |
| 20260506114048 | 21 | 153 | 4.8 | 16.1 | 0.00 | 0.00 | 0.00 | 91 | 1014.3 |
| 20260506113548 | 21 | 172 | 3.2 | 16.1 | 0.00 | 0.00 | 0.00 | 91 | 1014.3 |
| 20260506113049 | 21 | 160 | 4.8 | 16.1 | 0.00 | 0.00 | 0.00 | 91 | 1014.2 |
| 20260506112546 | 21 | 170 | 6.4 | 16.1 | 0.00 | 0.00 | 0.00 | 91 | 1014.1 |
| 20260506112047 | 21 | 169 | 4.8 | 11.3 | 0.00 | 0.00 | 0.00 | 91 | 1014.1 |
| 20260506111551 | 21 | 150 | 3.2 | 9.7 | 0.00 | 0.00 | 0.00 | 91 | 1014.1 |
| 20260506111047 | 21 | 0 | 0.0 | 9.7 | 0.00 | 0.00 | 0.00 | 91 | 1014.0 |
| 20260506110545 | 21 | 0 | 1.6 | 9.7 | 0.00 | 0.00 | 0.00 | 91 | 1014.1 |
| 20260506105547 | 21 | 0 | 0.0 | 0.0 | 0.00 | 0.00 | 0.00 | 90 | 1014.0 |
| 20260506105049 | 21 | 0 | 0.0 | 6.4 | 0.00 | 0.00 | 0.00 | 90 | 1013.9 |
| 20260506104553 | 21 | 0 | 0.0 | 6.4 | 0.00 | 0.00 | 0.00 | 90 | 1013.9 |
| 20260506104048 | 21 | 156 | 0.0 | 8.0 | 0.00 | 0.00 | 0.00 | 90 | 1013.8 |
| 20260506103548 | 21 | 152 | 1.6 | 8.0 | 0.00 | 0.00 | 0.00 | 90 | 1013.9 |
| 20260506103053 | 21 | 0 | 3.2 | 8.0 | 0.00 | 0.00 | 0.00 | 90 | 1013.7 |
| 20260506102547 | 21 | 0 | 0.0 | 0.0 | 0.00 | 0.00 | 0.00 | 90 | 1013.8 |
| 20260506102047 | 21 | 0 | 0.0 | 0.0 | 0.00 | 0.00 | 0.00 | 90 | 1013.8 |
| 20260506101559 | 21 | 0 | 0.0 | 0.0 | 0.00 | 0.00 | 0.00 | 90 | 1013.8 |
| 20260506101048 | 21 | 0 | 0.0 | 9.7 | 0.00 | 0.00 | 0.00 | 90 | 1013.8 |
| 20260506100550 | 21 | 0 | 0.0 | 9.7 | 0.00 | 0.00 | 0.00 | 90 | 1013.7 |
| 20260506100051 | 21 | 162 | 1.6 | 9.7 | 0.00 | 0.00 | 0.00 | 90 | 1013.8 |
| 20260506095552 | 21 | 0 | 3.2 | 9.7 | 0.00 | 0.00 | 0.00 | 90 | 1013.8 |
| 20260506095047 | 21 | 160 | 3.2 | 9.7 | 0.00 | 0.00 | 0.00 | 90 | 1013.8 |
| 20260506094600 | 21 | 0 | 0.0 | 8.0 | 0.00 | 0.00 | 0.00 | 90 | 1013.9 |
| 20260506094044 | 21 | 0 | 0.0 | 8.0 | 0.00 | 0.00 | 0.00 | 90 | 1013.8 |
| 20260506093548 | 21 | 0 | 1.6 | 9.7 | 0.00 | 0.00 | 0.00 | 90 | 1013.9 |
| 20260506093100 | 21 | 0 | 1.6 | 9.7 | 0.00 | 0.00 | 0.00 | 90 | 1013.9 |
| 20260506092547 | 21 | 157 | 3.2 | 9.7 | 0.00 | 0.00 | 0.00 | 90 | 1013.9 |
| 20260506092047 | 21 | 163 | 1.6 | 9.7 | 0.00 | 0.00 | 0.00 | 90 | 1013.9 |
| 20260506091552 | 21 | 164 | 4.8 | 9.7 | 0.00 | 0.00 | 0.00 | 90 | 1014.0 |
| 20260506091052 | 21 | 166 | 4.8 | 11.3 | 0.00 | 0.00 | 0.00 | 90 | 1013.8 |
| 20260506090550 | 21 | 167 | 4.8 | 11.3 | 0.00 | 0.00 | 0.00 | 90 | 1013.9 |
| 20260506090058 | 21 | 170 | 4.8 | 11.3 | 0.00 | 0.00 | 0.00 | 90 | 1013.9 |
| 20260506085603 | 21 | 162 | 6.4 | 12.9 | 0.00 | 0.00 | 0.00 | 90 | 1014.0 |
| 20260506085048 | 21 | 163 | 6.4 | 12.9 | 0.00 | 0.00 | 0.00 | 90 | 1014.0 |
| 20260506084553 | 21 | 146 | 3.2 | 9.7 | 0.00 | 0.00 | 0.00 | 90 | 1014.1 |
| 20260506084048 | 21 | 165 | 3.2 | 9.7 | 0.00 | 0.00 | 0.00 | 90 | 1014.0 |
| 20260506083548 | 21 | 156 | 3.2 | 9.7 | 0.00 | 0.00 | 0.00 | 90 | 1014.1 |
| 20260506083053 | 21 | 166 | 3.2 | 11.3 | 0.00 | 0.00 | 0.00 | 90 | 1014.2 |
| 20260506082549 | 21 | 161 | 4.8 | 11.3 | 0.00 | 0.00 | 0.00 | 90 | 1014.2 |
| 20260506082051 | 21 | 163 | 3.2 | 12.9 | 0.00 | 0.00 | 0.00 | 90 | 1014.2 |
| 20260506081553 | 21 | 170 | 3.2 | 12.9 | 0.00 | 0.00 | 0.00 | 90 | 1014.3 |
| 20260506081047 | 21 | 153 | 4.8 | 11.3 | 0.00 | 0.00 | 0.00 | 90 | 1014.3 |
| 20260506080548 | 21 | 182 | 1.6 | 11.3 | 0.00 | 0.00 | 0.00 | 90 | 1014.2 |
| 20260506073058 | 21 | 167 | 3.2 | 11.3 | 0.00 | 0.00 | 0.00 | 90 | 1014.2 |
| 20260506072548 | 21 | 174 | 6.4 | 11.3 | 0.00 | 0.00 | 0.00 | 90 | 1014.2 |
| 20260506072050 | 21 | 153 | 4.8 | 11.3 | 0.00 | 0.00 | 0.00 | 90 | 1014.3 |
| 20260506071605 | 21 | 0 | 1.6 | 8.0 | 0.00 | 0.00 | 0.00 | 90 | 1014.4 |
| 20260506071050 | 21 | 0 | 1.6 | 9.7 | 0.00 | 0.00 | 0.00 | 90 | 1014.4 |
| 20260506070548 | 21 | 167 | 3.2 | 9.7 | 0.00 | 0.00 | 0.00 | 90 | 1014.4 |
| 20260506062048 | 21 | 170 | 3.2 | 11.3 | 0.00 | 0.00 | 0.00 | 90 | 1014.5 |
| 20260506061555 | 21 | 172 | 4.8 | 11.3 | 0.00 | 0.00 | 0.00 | 90 | 1014.5 |
| 20260506061047 | 21 | 162 | 3.2 | 11.3 | 0.00 | 0.00 | 0.00 | 90 | 1014.6 |
| 20260506060546 | 21 | 190 | 3.2 | 9.7 | 0.00 | 0.00 | 0.00 | 90 | 1014.7 |
| 20260506051052 | 21 | 0 | 0.0 | 8.0 | 0.00 | 0.00 | 0.00 | 90 | 1015.0 |
| 20260506050547 | 21 | 165 | 3.2 | 8.0 | 0.00 | 0.00 | 0.00 | 90 | 1015.0 |
| 20260506045048 | 21 | 165 | 1.6 | 8.0 | 0.00 | 0.00 | 0.00 | 90 | 1015.2 |
| 20260506044601 | 21 | 0 | 0.0 | 9.7 | 0.00 | 0.00 | 0.00 | 90 | 1015.3 |
| 20260506044048 | 21 | 166 | 3.2 | 9.7 | 0.00 | 0.00 | 0.00 | 89 | 1015.3 |
| 20260506043549 | 21 | 153 | 3.2 | 9.7 | 0.00 | 0.00 | 0.00 | 89 | 1015.4 |
| 20260506043047 | 21 | 162 | 3.2 | 11.3 | 0.00 | 0.00 | 0.00 | 89 | 1015.6 |
| 20260506042548 | 21 | 163 | 3.2 | 11.3 | 0.00 | 0.00 | 0.00 | 89 | 1015.6 |
| 20260506042050 | 21 | 163 | 3.2 | 8.0 | 0.00 | 0.00 | 0.00 | 89 | 1015.6 |
| 20260506041604 | 21 | 161 | 3.2 | 11.3 | 0.00 | 0.00 | 0.00 | 89 | 1015.6 |
| 20260506041047 | 21 | 170 | 4.8 | 11.3 | 0.00 | 0.00 | 0.00 | 89 | 1015.5 |
| 20260506040545 | 21 | 153 | 3.2 | 11.3 | 0.00 | 0.00 | 0.00 | 89 | 1015.7 |
| 20260506040054 | 21 | 165 | 3.2 | 11.3 | 0.00 | 0.00 | 0.00 | 89 | 1015.8 |
| 20260506035549 | 21 | 165 | 3.2 | 9.7 | 0.00 | 0.00 | 0.00 | 89 | 1015.7 |
| 20260506035047 | 21 | 169 | 3.2 | 9.7 | 0.00 | 0.00 | 0.00 | 89 | 1015.8 |
| 20260506034554 | 21 | 163 | 1.6 | 11.3 | 0.00 | 0.00 | 0.00 | 88 | 1015.7 |
| 20260506034046 | 21 | 163 | 4.8 | 11.3 | 0.00 | 0.00 | 0.00 | 88 | 1015.7 |
| 20260506033551 | 21 | 155 | 1.6 | 9.7 | 0.00 | 0.00 | 0.00 | 88 | 1015.6 |
| 20260506033051 | 21 | 160 | 1.6 | 9.7 | 0.00 | 0.00 | 0.00 | 88 | 1015.6 |
| 20260506032548 | 21 | 153 | 3.2 | 9.7 | 0.00 | 0.00 | 0.00 | 88 | 1015.6 |
| 20260506032047 | 21 | 155 | 3.2 | 11.3 | 0.00 | 0.00 | 0.00 | 88 | 1015.7 |
| 20260506031555 | 22 | 150 | 3.2 | 11.3 | 0.00 | 0.00 | 0.00 | 88 | 1015.6 |
| 20260506031050 | 22 | 157 | 3.2 | 11.3 | 0.00 | 0.00 | 0.00 | 88 | 1015.7 |
| 20260506030552 | 22 | 173 | 1.6 | 14.5 | 0.00 | 0.00 | 0.00 | 88 | 1015.7 |
| 20260506030051 | 22 | 149 | 3.2 | 14.5 | 0.00 | 0.00 | 0.00 | 88 | 1015.6 |
| 20260506025549 | 22 | 136 | 3.2 | 12.9 | 0.00 | 0.00 | 0.00 | 87 | 1015.7 |
| 20260506025045 | 22 | 181 | 4.8 | 12.9 | 0.00 | 0.00 | 0.00 | 87 | 1015.8 |
| 20260506024550 | 22 | 0 | 4.8 | 12.9 | 0.00 | 0.00 | 0.00 | 87 | 1015.6 |
| 20260506024048 | 22 | 170 | 3.2 | 12.9 | 0.00 | 0.00 | 0.00 | 87 | 1015.6 |
| 20260506023551 | 22 | 165 | 4.8 | 12.9 | 0.00 | 0.00 | 0.00 | 87 | 1015.6 |
| 20260506023051 | 22 | 167 | 6.4 | 12.9 | 0.00 | 0.00 | 0.00 | 87 | 1015.5 |
| 20260506022547 | 22 | 161 | 6.4 | 12.9 | 0.00 | 0.00 | 0.00 | 87 | 1015.3 |
| 20260506022048 | 22 | 163 | 4.8 | 11.3 | 0.00 | 0.00 | 0.00 | 86 | 1015.4 |
| 20260506021556 | 22 | 0 | 4.8 | 12.9 | 0.00 | 0.00 | 0.00 | 86 | 1015.4 |
| 20260506021045 | 22 | 169 | 3.2 | 16.1 | 0.00 | 0.00 | 0.00 | 86 | 1015.4 |
| 20260506020547 | 22 | 159 | 6.4 | 16.1 | 0.00 | 0.00 | 0.00 | 86 | 1015.7 |
| 20260506020048 | 22 | 162 | 4.8 | 16.1 | 0.00 | 0.00 | 0.00 | 86 | 1015.6 |
| 20260506015552 | 22 | 174 | 3.2 | 12.9 | 0.00 | 0.00 | 0.00 | 85 | 1015.5 |